Лансинг

США     42°46′59″N   84°31′55″W
темп.,
°C
ветер,
м/с
пор.,
м/с
влажн.,
%
обл.,
%
осадки,
мм/ч
давл.,
гПа
погр.,
м
11 апреля, вс
вс1123:00+14всв3698100 8.8 996240
02:00+14ю61293100 12.0 993637
05:00+11юз398611 0.1 994394
08:00+9юз37945 0.1 995425
11:00+11ю4573100 0.0 995899
14:00+11ююв566993 0.0 995931
17:00+13юв456383 0.0 9951333
20:00+11юв357974 0.4 997164
12 апреля, пн
пн1223:00+9ю118594 0.1 99920
02:00+10сз1184100 0.1 100024
05:00+9ссв2385100 0.0 100068
08:00+9зсз3689100 0.0 1002196
11:00+11зсз3582100 0.0 1004390
14:00+13з4669100 0.0 1005927
17:00+12з797547 0.1 1006809
20:00+10зсз597988 0.1 1010677
13 апреля, вт
вт1323:00+7з49897 0.0 1012275
02:00+5зюз37910 0.0 1014167
05:00+4юз37820 0.0 1015134
08:00+5ююз410820 0.0 1015258
11:00+11зюз58550 0.0 10151166
14:00+12зюз794663 0.0 10151971
17:00+12з794952 0.0 10151892
20:00+8з376355 0.0 1016186
14 апреля, ср
ср1423:00+6з4964100 0.0 1017506
02:00+5зюз36718 0.0 1017183
05:00+3зюз3681100 0.0 1016235
08:00+3з3687100 0.3 1017600
11:00+4з4578100 0.5 1016882
14:00+6з5676100 1.1 10141175
17:00+6зсз5666100 0.7 10131195
20:00+4зсз4879100 1.3 1013586
15 апреля, чт
чт1523:00+2зсз488383 0.0 1013291
02:00+1сз49927 0.0 1013285
05:00+1зсз4793100 0.0 1012461
08:00+2з41099100 1.1 1011372
11:00+5ссз51093100 0.7 1011922
14:00+8с6974100 0.8 10111086
17:00+9ссз6107899 0.2 1011983
20:00+9ссз61283100 0.7 1012801